This is the latest recevied weather packets stored in our database for station/object KG5WBN. If no packets are shown the sender has not sent any weather packets the latest 10 day(s).
| Time | Temp. | Humidity | Pressure | Rain* | Wind** | Luminosity | Snow |
|---|---|---|---|---|---|---|---|
| 1787764028 | 33.89° C | 43% | 1015.9 hPa | 0 mm | - | 323 W/m² | - |
| 1787763723 | 33.89° C | 43% | 1015.9 hPa | 0 mm | - | 322 W/m² | - |
| 1787763418 | 33.89° C | 52% | 1015.6 hPa | 0 mm | - | 319 W/m² | - |
| 1787763118 | 33.33° C | 43% | 1015.6 hPa | 0 mm | - | 317 W/m² | - |
| 1787762812 | 33.89° C | 43% | 1015.9 hPa | 0 mm | - | 313 W/m² | - |
| 1787762507 | 33.89° C | 43% | 1015.9 hPa | 0 mm | - | 292 W/m² | - |
| 1787762203 | 32.78° C | 44% | 1015.9 hPa | 0 mm | - | 309 W/m² | - |
| 1787761899 | 32.78° C | 44% | 1016.3 hPa | 0 mm | - | 304 W/m² | - |
| 1787761594 | 32.78° C | 44% | 1015.9 hPa | 0 mm | - | 300 W/m² | - |
| 1787761290 | 32.78° C | 43% | 1015.9 hPa | 0 mm | - | 295 W/m² | - |
| 1787760988 | 32.78° C | 45% | 1015.9 hPa | 0 mm | - | 289 W/m² | - |
| 1787760686 | 33.33° C | 44% | 1015.9 hPa | 0 mm | - | 290 W/m² | - |
| 1787760381 | 32.78° C | 44% | 1015.9 hPa | 0 mm | - | 275 W/m² | - |
| 1787760076 | 33.33° C | 45% | 1015.9 hPa | 0 mm | - | 276 W/m² | - |
| 1787759773 | 32.78° C | 44% | 1015.6 hPa | 0 mm | - | 273 W/m² | - |
| 1787759469 | 32.78° C | 44% | 1015.9 hPa | 0 mm | - | 272 W/m² | - |
| 1787759164 | 32.78° C | 44% | 1015.9 hPa | 0 mm | - | 268 W/m² | - |
| 1787758863 | 32.78° C | 54% | 1015.6 hPa | 0 mm | - | 253 W/m² | - |
| 1787758559 | 32.78° C | 44% | 1015.6 hPa | 0 mm | - | 245 W/m² | - |
| 1787758258 | 32.78° C | 44% | 1015.6 hPa | 0 mm | - | 243 W/m² | - |
| 1787757953 | 32.22° C | 44% | 1015.6 hPa | 0 mm | - | 226 W/m² | - |
| 1787757650 | 32.22° C | 50% | 1015.6 hPa | 0 mm | - | 183 W/m² | - |
| 1787757349 | 32.22° C | 50% | 1015.6 hPa | 0 mm | - | 183 W/m² | - |
| 1787757048 | 31.67° C | 50% | 1015.6 hPa | 0 mm | - | 207 W/m² | - |
| 1787756743 | 32.22° C | 50% | 1015.6 hPa | 0 mm | - | 198 W/m² | - |
* Rain latest hour (hover to see other rain measurements)
** Current wind speed in m/s (hover to see current wind gust speed)